Location: Nakusp
(50.2330°N, 117.8000°W)
Time: 08:20:09
(UTC-07:00)

Cosmos 1939 Rocket - Visible Passes

Search period start: 28 July 2015 00:00
Search period end: 07 August 2015 00:00
Orbit: 534 x 591 km, 97.6° (Epoch: 27 July)

Date Brightness Start Highest point End Pass type
(mag) Time Alt. Az. Time Alt. Az. Time Alt. Az.
28 Jul 5.7 22:44:38 10° WSW 22:46:18 12° W 22:47:45 10° WNW visible
29 Jul 5.7 22:44:17 10° WSW 22:45:57 12° W 22:47:25 10° WNW visible
30 Jul 5.7 22:43:55 10° WSW 22:45:37 12° W 22:47:05 10° WNW visible
31 Jul 5.7 22:43:33 10° WSW 22:45:15 12° W 22:46:46 10° WNW visible
01 Aug 2.9 21:05:15 10° SSE 21:09:19 77° ENE 21:13:20 10° N visible
01 Aug 5.7 22:43:12 10° WSW 22:44:54 12° W 22:46:26 10° WNW visible
02 Aug 2.9 21:04:55 10° SSE 21:08:58 77° ENE 21:12:58 10° N visible
02 Aug 5.7 22:42:49 10° WSW 22:44:32 12° W 22:46:05 10° WNW visible
03 Aug 2.9 21:04:34 10° SSE 21:08:37 76° ENE 21:12:37 10° N visible
03 Aug 5.7 22:42:27 10° WSW 22:44:11 12° W 22:45:44 10° WNW visible
04 Aug 2.9 21:04:14 10° SSE 21:08:14 75° ENE 21:12:14 10° N visible
04 Aug 5.6 22:42:04 10° WSW 22:43:49 12° W 22:45:23 10° WNW visible
05 Aug 2.9 21:03:52 10° SSE 21:07:53 75° ENE 21:11:52 10° N visible
05 Aug 5.6 22:41:42 10° WSW 22:43:27 12° W 22:45:02 10° WNW visible
06 Aug 2.9 21:03:31 10° SSE 21:07:31 74° ENE 21:11:29 10° N visible
06 Aug 5.6 22:41:18 10° WSW 22:43:05 12° W 22:44:41 10° WNW visible
